カタログに戻る

CZ-4C DEB

運用中SSO
NORAD 37567·DEBRIS·🇨🇳 China

打ち上げ Aug 9, 2010 から Taiyuan Satellite Launch Center

Loading…

次のパス (今後24時間)

TLE

最新Source: Space-Track

元期: Sep 14, 2026, 12:02 UTC

1 37567U 10038C   26257.50190141  .00011184  00000-0  71904-3 0  9992
2 37567  97.7259  89.9973 0063687 277.5897 111.5799 15.06891908855984

AllMySatでCZ-4C DEBをリアルタイム追跡

Download on the App Store